This is the latest recevied weather packets stored in our database for station/object F5ZQC-13. If no packets are shown the sender has not sent any weather packets the latest 10 day(s).
| Time | Temp. | Humidity | Pressure | Rain* | Wind** | Luminosity | Snow |
|---|---|---|---|---|---|---|---|
| 1777172513 | 15.56° C | 58% | 1017.4 hPa | 0 mm | - | - | - |
| 1777172472 | 15.56° C | 58% | 1017 hPa | 0 mm | - | - | - |
| 1777172350 | 15.56° C | 57% | 1016.7 hPa | 0 mm | - | - | - |
| 1777172228 | 15.56° C | 55% | 1017.1 hPa | 0 mm | - | - | - |
| 1777172105 | 15.56° C | 61% | 1017.3 hPa | 0 mm | - | - | - |
| 1777171827 | 15.56° C | 54% | 1017.2 hPa | 0 mm | - | - | - |
| 1777171704 | 15.56° C | 59% | 1017.4 hPa | 0 mm | - | - | - |
| 1777171582 | 15.56° C | 57% | 1017.2 hPa | 0 mm | - | - | - |
| 1777171459 | 15.56° C | 53% | 1017.5 hPa | 0 mm | - | - | - |
| 1777171338 | 15.56° C | 58% | 1017.1 hPa | 0 mm | - | - | - |
| 1777171177 | 15.56° C | 58% | 1017.4 hPa | 0 mm | - | - | - |
| 1777171053 | 15.56° C | 58% | 1016.7 hPa | 0 mm | - | - | - |
| 1777170933 | 15.56° C | 57% | 1017 hPa | 0 mm | - | - | - |
| 1777170571 | 15.56° C | 56% | 1017.4 hPa | 0 mm | - | - | - |
| 1777170481 | 15.56° C | 54% | 1017.2 hPa | 0 mm | - | - | - |
| 1777170447 | 15.56° C | 54% | 1017.2 hPa | 0 mm | - | - | - |
| 1777170142 | 15.56° C | 59% | 1017.2 hPa | 0 mm | - | - | - |
| 1777169968 | 15.56° C | 59% | 1017.4 hPa | 0 mm | - | - | - |
| 1777169847 | 15.56° C | 58% | 1017.4 hPa | 0 mm | - | - | - |
| 1777169515 | 15.56° C | 64% | 1017.5 hPa | 0 mm | - | - | - |
| 1777169392 | 15.56° C | 57% | 1017.5 hPa | 0 mm | - | - | - |
| 1777169026 | 15.56° C | 61% | 1017.5 hPa | 0 mm | - | - | - |
* Rain since midnight (hover to see other rain measurements)
** Current wind speed in m/s (hover to see current wind gust speed)